CamptonHillsWeather.com

Find the Weather for any City, State  
or Zipcode, or Country:

Campton Hills, IL Weather
Local Radar

Local Radar

Graphs, Details
Graphs and Gauges
Detailed Weather
Detailed Reports
Ajax Version (old)
Central Kane Co Summary
Davis Current Weather Graphs
Davis 24 Hour Weather History

CW3778 Data

Weather Underground
Maps
Temperature
Heat Index
Windchill
Humidity
Radar
Dew Point
Wind
Visibility
Visible Satellite
Satellite
Fronts
Snow Depth
Jet Stream
Flight Rules
Forecast Maps
Temperature Forecast
Maximum Temperature Forecast
Minimum Temperature Forecast
Dewpoint Forecast
Prevalent Weather
12Hr Probability of Precip.
Sky Cover
Health Maps
UV Forecast
Air Quality
Peak Air Quality Index
Weather Station
Davis Instruments Vantage Pro
Current Conditions [Select Refresh to Update]

Updated: 2:18pm on 2/6/16

(location)
Currently:
39.4F

Clear
Scattered Clouds

High: 39.4 F< 
(2:15pm
Low: 23.4 F 
(6:58am)
Wind: WSW 6 mph
Light Breeze
Gust: 11 mph
Today's High Wind: 14 mph (1:38pm)
Humidity: 74%
Pressure: 30.20 in  (Falling
Pressure Rate: -0.026 in/hr
Dew Point: 31.8F
Wind Chill: 35.0 F
Heat Index (feels like): 42.8 F
Comfort Level: Cool
Temperature Rate:  2.05F/hr
 
5 Day Forecast
 
Sun Mon Tue Wed Thu
Clear Clear Clear Clear Clear
Chance Rain Snow Snow Mostly Cloudy Mostly Cloudy
42 32 22 19 25
26 18 7 8 15

Records and Normals
 
Temperature Forecast Normal Record
High 42 34 46
(2005)
Low 26 17 -7
(2007)
 
Links
 
 
Weather Advisories
No Advisories
Full Advisory Text...
Weather Map

Web Cam

Almanac
 
Sunrise:  
6:59am
Moonrise: 
5:17am

Moon Phase:
7%

Sunset: 
5:12pm
Moonset:  
3:29pm
 Star Chart...
Rainfall Totals
Hourly Rain 0.00 in
Daily Rain: 0.00 in
Monthly Rain: 0.81 in
Yearly Rain: 2.18 in
Normal Rain, month to date: 1.41 in
Normal Rain, year to date: 2.10 in
Link to Village of Campton Hills Map

Link to Counties of Illinois Map

Local Weather Exchange Network
Station ID City 
(Click for Map Location)
Neighborhood 
(Click for History)
Last Update (Date & Time) Temperature
 ()
Dew
Point ()
Humidity 
(%)
Wind 
(mph)
from the Wind Gust 
(mph) 
Pressure(in) Hourly
Rain(in)
KILSAINT20 Saint Charles Knoll Creek Drive 02/06 14:06:47 38.3 31.0 74 0 North 0 30.11 0.00
KILSAINT17 Saint Charles Glen Oak Lane 02/06 14:05:31 43.2 32.0 63 0 North 0 30.22 0.00
KILSAINT15 Saint Charles Shoreline Drive 02/06 14:06:41 42.8 28.0 56 0 North 0 30.25 0.00
KILSAINT10 Saint Charles Saint Charles Burr Road 02/06 14:01:13 41.0 32.0 71 7 SSW 0 29.90 0.00
KILGENEV5 Geneva meso_neigh5 02/06 14:11:38 59.4 37.0 43 0 West 0 30.08 0.00
KILSTCHA10 St. Charles Hunt Club 02/06 14:12:05 40.8 10.0 28 0 SW 0 29.66 0.00
KILWAYNE5 Wayne Persimmon Drive 02/06 14:06:29 39.9 32.0 72 0 North 0 30.25 0.00
KILSAINT8 Saint Charles St. Charles Near West Side 02/06 13:58:33 42.8 31.0 62 11 South 0 29.94 0.00
KILSAINT7 Saint Charles Silver Glen 02/06 14:12:10 39.9 27.0 60 10 SSW 12 29.77 0.00
MC5855 Saint Charles APRSWXNET 02/06 13:48:00 40.0 29.0 65 3 SW 0 30.17 0.00
KILCAMPT3 Campton Hills Campton Hills 02/06 14:12:10 40.5 30.0 65 7 South 12 30.20 0.00
KILSAINT6 Saint Charles 3 Lakes 02/06 12:08:43 37.2 29.0 71 3 NNE 0 29.94 0.00
KILGENEV16 Geneva Fisher Farms 02/06 14:11:55 42.3 32.0 68 3 SSE 0 29.33 0.00
KILSOUTH10 South Elgin East Thornwood Drive 02/06 14:06:20 39.2 30.0 69 0 North 0 29.19 0.00
KILSAINT9 Saint Charles Fox Chase 02/06 14:12:09 41.0 28.0 60 0 West 0 30.15 0.00
KILGENEV6 Geneva Dover Ridge 02/06 14:11:51 39.3 31.0 71 12 SSW 12 30.18 0.00
MUR354 Geneva MesoWest 02/06 13:25:00 34.0 0.0 0 8 SSW 20 0.00 0.00
KILELBUR18 Elburn Elodie Drive 02/06 14:05:38 44.2 33.0 64 0 North 0 28.67 0.00
KILGENEV10 Geneva Southampton Drive 02/06 14:06:06 43.0 43.0 100 0 North 0 30.23 0.00
KILSTCHA8 St. Charles Ronzheimer Ave. & S. Tyler Rd. 02/06 14:12:17 39.1 31.0 72 9 WSW 16 30.18 0.00
KILGENEV9 Geneva Saint Andrews Circle 02/06 14:06:04 39.7 32.0 74 0 North 0 30.23 0.00
KILGENEV3 Geneva Mill Creek (Blackberry Way) 02/06 14:12:08 40.3 32.0 72 15 WSW 20 30.24 0.00
KILSTCHA1 St Charles CamptonHillsWeather.com Central Kane County 02/06 14:12:13 39.4 32.0 74 8 West 8 30.20 0.00
KILGENEV7 Geneva Eldorado Drive 02/06 14:06:02 38.7 35.0 87 0 North 0 30.09 0.00
KILGENEV8 Geneva Alexander Drive 02/06 14:05:48 23.9 18.0 79 0 North 0 29.21 0.00
KILGENEV13 Geneva Alexander Drive 02/06 14:05:29 38.8 32.0 77 0 North 0 30.17 0.00
KILSOUTH5 South Elgin Concord Park 02/06 13:58:30 28.9 18.0 62 5 South 0 29.91 0.00
KILWAYNE7 Wayne Honey Hill 02/06 14:07:45 40.4 32.0 71 0 North 0 29.53 0.00
KILGENEV2 Geneva Mill Creek 02/06 14:01:39 39.0 31.0 73 9 WSW 16 30.16 0.00
KILBATAV13 Batavia Blackhawk Dr, Batavia 02/06 14:12:16 40.5 26.0 56 8 SW 10 30.17 0.00
KILELBUR11 Elburn Cheval de Selle 02/06 14:08:09 39.6 32.0 73 5 SSW 0 30.13 0.00
KILBATAV7 Batavia Charleston Street 02/06 14:06:07 38.5 35.0 87 0 North 0 30.23 0.00
KILELBUR13 Elburn Hicks Drive 02/06 14:05:27 59.4 38.0 45 0 North 0 30.02 0.00
KILBATAV6 Batavia Tri Cities on the Fox River 2 02/06 14:00:21 35.7 26.0 68 0 SSE 0 30.20 0.00
KILBATAV1 Batavia Tri-Cities on the Fox River 02/06 14:11:25 41.1 29.0 62 6 SW 8 30.21 0.00
KILELGIN16 Elgin Providence Subdivision 02/06 14:04:06 43.7 29.0 55 4 West 0 29.90 0.00
KILELBUR10 Elburn Prairie Valley North 02/06 14:12:04 41.2 31.0 66 7 West 10 30.00 0.00
KILELGIN20 Elgin Williamsburg Drive 02/06 14:06:25 37.4 34.0 86 0 North 0 30.12 0.00
KILELBUR15 Elburn East North Street 02/06 14:06:33 51.3 33.0 49 0 North 0 29.98 0.00
KILBATAV10 Batavia Deerpath Road 02/06 14:05:50 39.7 32.0 73 0 North 0 30.17 0.00
Full Advisory Text
No Warnings

Ambient Weather and Weather Underground
 Never base important decisions on this or any weather information obtained from the Internet
Updated Automatically by Ambient Weather's Virtual Weather Station  V13.01